This is the latest recevied weather packets stored in our database for station/object CE3TL-WX. If no packets are shown the sender has not sent any weather packets the latest 1 day(s).
| Time | Temp. | Humidity | Pressure | Rain* | Wind** | Luminosity | Snow |
|---|---|---|---|---|---|---|---|
| 1777997219 | 19.44° C | 38% | 1019.7 hPa | - | 0.89 m/s, 0° | - | - |
| 1777996685 | 19.44° C | 39% | 1019.7 hPa | - | 0.45 m/s, 0° | - | - |
| 1777996150 | 18.89° C | 39% | 1019.9 hPa | - | 0.45 m/s, 0° | - | - |
| 1777995617 | 18.33° C | 39% | 1020.1 hPa | - | 0.89 m/s, 0° | - | - |
| 1777995083 | 18.33° C | 38% | 1020.2 hPa | - | 0.45 m/s, 0° | - | - |
| 1777994549 | 18.33° C | 38% | 1020.3 hPa | - | 0.89 m/s, 0° | - | - |
| 1777994016 | 18.33° C | 39% | 1020.5 hPa | - | 0.45 m/s, 0° | - | - |
| 1777993481 | 17.78° C | 39% | 1020.7 hPa | - | 0.89 m/s, 0° | - | - |
| 1777992946 | 17.78° C | 39% | 1020.8 hPa | - | 0.45 m/s, 0° | - | - |
| 1777992412 | 17.78° C | 40% | 1020.9 hPa | - | 0.89 m/s, 0° | - | - |
| 1777991878 | 17.22° C | 41% | 1020.8 hPa | - | 0.45 m/s, 0° | - | - |
| 1777991345 | 16.67° C | 43% | 1020.9 hPa | - | 0.89 m/s, 0° | - | - |
| 1777990811 | 16.67° C | 42% | 1021 hPa | - | 0.45 m/s, 0° | - | - |
| 1777990277 | 16.11° C | 44% | 1020.9 hPa | - | 0.45 m/s, 0° | - | - |
| 1777989742 | 16.11° C | 46% | 1021.1 hPa | - | 0.89 m/s, 0° | - | - |
| 1777989208 | 15.56° C | 45% | 1021.3 hPa | - | 0.45 m/s, 0° | - | - |
| 1777988674 | 15.56° C | 45% | 1021.6 hPa | - | 0.89 m/s, 0° | - | - |
| 1777988140 | 15° C | 46% | 1021.8 hPa | - | 0.45 m/s, 0° | - | - |
| 1777987606 | 15° C | 46% | 1021.8 hPa | - | 0.45 m/s, 0° | - | - |
| 1777987072 | 15° C | 47% | 1022 hPa | - | 0.45 m/s, 0° | - | - |
| 1777986538 | 14.44° C | 48% | 1022.1 hPa | - | 0.89 m/s, 0° | - | - |
| 1777986004 | 14.44° C | 49% | 1022.2 hPa | - | 0 m/s | - | - |
| 1777985470 | 13.89° C | 51% | 1022.1 hPa | - | 0.89 m/s, 0° | - | - |
| 1777984935 | 13.89° C | 51% | 1022.3 hPa | - | 0 m/s | - | - |
| 1777984397 | 13.89° C | 51% | 1022.5 hPa | - | 0.45 m/s, 0° | - | - |
* Rain since midnight (hover to see other rain measurements)
** Current wind speed in m/s (hover to see current wind gust speed)